Regional Weather Roundup
Issued by NWS

Home | Current Version | Previous Version | Graphics & Text | Print | Product List | Glossary On
Versions: 1 2 3 4 5 6 7 8 9 10 11 12 13 14 15 16 17 18 19 20 21 22 23 24 25 26 27 28 29 30 31 32 33 34 35 36 37 38 39 40 41 42 43 44 45 46 47 48 49 50
000
ASUS43 KIND 272309
RWRIN

WEATHER ROUNDUP FOR INDIANA
NATIONAL WEATHER SERVICE INDIANAPOLIS IN
700 PM EDT MON MAR 27 2017

NOTE: "FAIR" INDICATES FEW OR NO CLOUDS BELOW 12,000 FEET WITH NO
SIGNIFICANT WEATHER AND/OR OBSTRUCTIONS TO VISIBILITY.

* - STATION DOES NOT REPORT WEATHER SUCH AS PRECIPITATION OR FOG.

+ - STATION NOT QUALITY CONTROLLED BY THE NATIONAL WEATHER SERVICE.
    USE DATA WITH CAUTION...ESPECIALLY DEWPOINT AND RELATIVE
    HUMIDITY OBSERVATIONS.

INZ001>003-010>013-019-020-280000-
NORTHWEST INDIANA

CITY           SKY/WX    TMP DP  RH WIND       PRES   REMARKS
GARY /AIRPORT/ CLOUDY    43  41  93 N7        29.92S FOG
KNOX *+        CLOUDY    54  37  54 N12       29.87F
LA PORTE +     LGT RAIN  47  46  97 N10       29.89S
MICHIGAN CITY+ CLOUDY    41  41 100 N9        29.92S FOG
MONTICELLO +   CLOUDY    58  52  81 NE8       29.85S
RENSSELAER +   CLOUDY    55  54  94 N8        29.87R
VALPARAISO     CLOUDY    49  47  93 N10       29.89S FOG

$$

LMZ046-743>745-280000-
SOUTHERN LAKE MICHIGAN

STATION/POSITION TIME  TEMP    WIND        PRES    WAVE
                       AIR SEA DIR/SP/G            HT
                 (UTC) (F)     (DEG/KT/KT) (MB)    (FT)
BURNS HARBOR     2240   40      50/ 11/ 13 1013.5R
MICHIGAN CITY    2240   38      30/ 13/ 14   N/A

$$

INZ004-005-014>016-021>024-280000-
NORTH CENTRAL INDIANA

CITY           SKY/WX    TMP DP  RH WIND       PRES   REMARKS
ELKHART        DRIZZLE   55  50  82 N5        29.88S
GOSHEN         LGT RAIN  56  50  80 W3        29.88R
LOGANSPORT +   LGT RAIN  57  52  82 NE5       29.86S
PERU/GRISSOM   LGT RAIN  57  57 100 SE3       29.85R FOG
ROCHESTER +    DRIZZLE   59  54  82 N5        29.87S
SOUTH BEND     CLOUDY    50  48  93 N12       29.90R
WARSAW +       LGT RAIN  55  50  82 N3        29.87S

$$

INZ006>009-017-018-025>027-280000-
NORTHEAST INDIANA

CITY           SKY/WX    TMP DP  RH WIND       PRES   REMARKS
ANGOLA *+      CLOUDY    57  48  72 NW3       29.88R
AUBURN +       LGT RAIN  57  50  77 CALM      29.88S
FORT WAYNE     LGT RAIN  58  52  80 E3        29.87S
HUNTINGTON +   DRIZZLE   57  54  90 NE3       29.86S
KENDALLVILLE + DRIZZLE   56  51  81 CALM      29.88S

$$

INZ028-029-035-036-043>045-051>053-280000-
WEST CENTRAL INDIANA

CITY           SKY/WX    TMP DP  RH WIND       PRES   REMARKS
CRAWFORDSVL +  CLOUDY    55  55 100 NE7       29.82F
GREENCASTLE +  CLOUDY    57  54  88 E5        29.81F
LAFAYETTE      LGT RAIN  55  54  96 SE7       29.84S FOG
TERRE HAUTE    CLOUDY    60  55  83 NE3       29.79F

$$

INZ030>032-037>040-046>048-054>057-064-065-280000-
CENTRAL INDIANA

CITY           SKY/WX    TMP DP  RH WIND       PRES   REMARKS
CP ATTERBURY + CLOUDY    63  54  72 CALM      29.81F HAZE
COLUMBUS       CLOUDY    64  57  77 CALM      29.81F
FISHERS *+     CLOUDY    57  54  88 E3        29.82F
FRANKFORT +    CLOUDY    59  56  89 NE8       29.86S
GREENWOOD *+   CLOUDY    62  55  77 E3        29.82F
INDIANAPOLIS   CLOUDY    60  53  77 E9        29.81F
-EAGLE CREEK   CLOUDY    61  52  72 E7        29.81F
KOKOMO +       LGT RAIN  57  55  93 CALM      29.87R
MARION +       CLOUDY    57  54  88 CALM      29.86S
MT COMFORT *+  CLOUDY    59  54  82 E5        29.83F
SHELBYVILLE    CLOUDY    63  54  72 E6        29.81F
ZIONSVILLE +   CLOUDY    57  52  84 NE5       29.83F

$$

INZ033-034-041-042-049-050-058-059-280000-
EAST CENTRAL INDIANA

CITY           SKY/WX    TMP DP  RH WIND       PRES   REMARKS
MUNCIE         CLOUDY    61  52  72 E6        29.85S
RICHMOND +     CLOUDY    59  52  77 E5        29.86F

$$

INZ060-061-067>069-081>083-085>088-280000-
SOUTHWEST INDIANA

CITY           SKY/WX    TMP DP  RH WIND       PRES   REMARKS
EVANSVILLE     CLOUDY    60  54  80 SW6       29.80S
HUNTINGBURG *+ CLOUDY    56  55  97 CALM      29.80S
WASHINGTON +   CLOUDY    63  55  77 MISG      29.78F

$$

INZ062-063-066-070>080-084-089>092-280000-
SOUTH CENTRAL AND SOUTHEAST INDIANA

CITY           SKY/WX    TMP DP  RH WIND       PRES   REMARKS
BEDFORD +      CLOUDY    61  55  82 SW10G24   29.81R
BLOOMINGTON    HVY RAIN  60  55  83 NE3       29.80S
MADISON *+     PTSUNNY   63  59  88 E5        29.84F
SEYMOUR +      CLOUDY    66  57  72 E6        29.80F

$$





USA.gov is the U.S. government's official web portal to all federal, state and local government web resources and services.